Simultaneous Nadir Overpasses (SNOs) Predictions

Prediction of SNOs between GOES-17 and METOP-A Satellite Orbit:

Table of predicted SNOs for the next 14.0 days since TLE Epoch: 8/9/2019
Index Date Time (GOES-17) GOES-17 Lat,Lon METOP-A Lat,Lon Distance(km) Time Diff (sec)
1 08/10/2019 06:00:32 -0.00,-137.19 0.47,-135.04 245.37 80
2 08/11/2019 18:21:56 0.01,-137.19 0.56,-139.59 273.45 80
3 08/12/2019 17:58:31 0.00,-137.19 -0.55,-134.58 295.95 80
4 08/14/2019 06:20:05 -0.01,-137.17 -0.45,-139.18 228.90 80
5 08/15/2019 05:56:40 -0.00,-137.16 0.67,-134.17 340.09 80
6 08/16/2019 18:18:03 0.01,-137.15 0.37,-138.72 179.58 80
7 08/17/2019 17:54:39 0.00,-137.14 -0.74,-133.72 389.31 80
8 08/19/2019 06:16:12 -0.01,-137.11 -0.25,-138.31 136.09 80
9 08/20/2019 05:52:47 -0.00,-137.10 0.81,-133.30 432.41 80
10 08/21/2019 18:14:11 0.01,-137.08 0.17,-137.86 88.35 80
11 08/22/2019 17:50:47 0.01,-137.06 -0.94,-132.85 479.78 80




NCC Satellite Simultaneous Nadir Overpasses (SNOs) Prediction Service
